Stations météo

réclame
Mon MeteoGroup
Idar-Oberstein, Allemagne (10618): Température de l'air & dewpoint: 12.02.2019 17:00:00 - 18.02.2019 17:00:00 (CET)Idar-Oberstein, Allemagne (10618): Vitesse du vent: 12.02.2019 17:00:00 - 18.02.2019 17:00:00 (CET)Idar-Oberstein, Allemagne (10618): Direction du vent: 12.02.2019 17:00:00 - 18.02.2019 17:00:00 (CET)Idar-Oberstein, Allemagne (10618): reduced air pressure: 12.02.2019 17:00:00 - 18.02.2019 17:00:00 (CET)Idar-Oberstein, Allemagne (10618): visibility: 12.02.2019 17:00:00 - 18.02.2019 17:00:00 (CET)
Date & Time tt [°C] td [°C] ff [km/h] ff [knt] dd ppp [hPa] vv [km]
18.02.2019 17:00:00 12,8 -1,9 14 8 SW 1017,6 40
18.02.2019 16:00:00 13,6 -2,1 18 10 SSW 1017,5 40
18.02.2019 15:00:00 13,7 -2,3 14 8 SSW 1017,9 40
18.02.2019 14:00:00 13,4 -2,5 22 12 SSW 1018,4 40
18.02.2019 13:00:00 11,8 -1,4 18 10 SW 1019,7 40
18.02.2019 12:00:00 10,7 -0,3 18 10 SSW 1020,7 40
18.02.2019 11:00:00 7,9 0,2 18 10 SSW 1021,7 35
18.02.2019 10:00:00 3,5 -0,6 4 2 WSW 1022,5 35
18.02.2019 09:00:00 -1,5 -2,6 7 4 SW 1023,6 30
18.02.2019 08:00:00 -3,1 -4,0 7 4 SW 1023,9 25
18.02.2019 07:00:00 -2,9 -3,9 7 4 SW 1023,9 25
18.02.2019 06:00:00 -2,3 -3,2 7 4 WSW 1024,0 20
18.02.2019 05:00:00 -2,6 -3,6 7 4 WSW 1023,9 20
18.02.2019 04:00:00 -2,1 -3,5 7 4 N 1023,9 20
18.02.2019 03:00:00 -1,9 -3,3 7 4 W 1024,4 20
18.02.2019 02:00:00 -0,7 -2,7 7 4 SW 1024,2 30
18.02.2019 01:00:00 -0,5 -2,5 7 4 SW 1024,5 30
18.02.2019 00:00:00 0,9 -2,1 7 4 SW 1024,1 30
17.02.2019 23:00:00 1,7 -1,9 7 4 SW 1024,1 30
17.02.2019 22:00:00 2,4 -1,9 7 4 SW 1024,2 30
17.02.2019 21:00:00 4,4 -1,7 4 2 N 1023,7 30
17.02.2019 20:00:00 6,4 -1,5 4 2 N 1023,3 30
17.02.2019 19:00:00 8,3 -1,4 7 4 S 1022,6 30
17.02.2019 18:00:00 11,7 -1,7 4 2 S 1021,8 40
17.02.2019 17:00:00 14,7 -2,5 11 6 SW 1021,5 40
17.02.2019 16:00:00 14,9 -2,2 11 6 WSW 1021,9 40
17.02.2019 15:00:00 14,7 -2,6 14 8 SW 1022,2 40
17.02.2019 14:00:00 14,2 -1,5 11 6 SW 1022,8 30
17.02.2019 13:00:00 12,7 -1,0 14 8 SW 1023,5 30
17.02.2019 12:00:00 10,3 0,0 11 6 WSW 1024,6 30
17.02.2019 11:00:00 5,7 0,0 7 4 W 1025,4 30
17.02.2019 10:00:00 0,5 -1,1 7 4 SW 1026,5 30
17.02.2019 09:00:00 -1,0 -1,7 4 2 WSW 1027,2 20
17.02.2019 08:00:00 -2,6 -3,1 7 4 SW 1027,4 20
17.02.2019 07:00:00 -2,4 -3,0 4 2 SW 1027,4 10
17.02.2019 06:00:00 -2,3 -2,9 7 4 SW 1027,6 8
17.02.2019 05:00:00 -1,7 -2,4 4 2 WSW 1027,6 10
17.02.2019 04:00:00 -1,5 -2,3 4 2 N 1027,7 10
17.02.2019 03:00:00 -1,3 -2,1 7 4 SW 1027,9 12
17.02.2019 02:00:00 -0,7 -1,5 4 2 WSW 1028,0 15
17.02.2019 01:00:00 -0,2 -1,4 7 4 SW 1028,1 15
17.02.2019 00:00:00 0,6 -1,0 7 4 SSW 1028,4 15
16.02.2019 23:00:00 1,9 -0,3 4 2 W 1028,3 15
16.02.2019 22:00:00 3,2 -0,1 4 2 S 1028,1 18
16.02.2019 21:00:00 4,8 0,2 7 4 SSE 1027,8 20
16.02.2019 20:00:00 6,9 0,2 4 2 SSE 1027,7 25
16.02.2019 19:00:00 7,7 0,6 7 4 SE 1027,5 30
16.02.2019 18:00:00 11,3 0,5 4 2 SSW 1026,7 30
16.02.2019 17:00:00 14,5 0,2 11 6 SW 1026,2 30
16.02.2019 16:00:00 15,2 0,9 14 8 SW 1026,3 30
16.02.2019 15:00:00 14,9 0,7 14 8 SW 1026,4 35
16.02.2019 14:00:00 14,5 0,6 11 6 SW 1026,9 35
16.02.2019 13:00:00 12,4 1,4 7 4 W 1027,6 30
16.02.2019 12:00:00 9,5 2,0 4 2 NW 1028,6 30
16.02.2019 11:00:00 5,5 0,8 4 2 ENE 1029,5 30
16.02.2019 10:00:00 2,0 0,2 4 2 SSE 1030,2 30
16.02.2019 09:00:00 -2,4 -3,1 7 4 SW 1031,2 25
16.02.2019 08:00:00 -3,2 -3,8 7 4 SW 1031,1 20
16.02.2019 07:00:00 -3,1 -3,7 7 4 SW 1030,7 20
16.02.2019 06:00:00 -2,4 -2,9 4 2 W 1030,8 15
16.02.2019 05:00:00 -2,3 -3,0 4 2 WSW 1031,0 15
16.02.2019 04:00:00 -2,1 -2,7 4 2 SW 1030,9 15
16.02.2019 03:00:00 -1,8 -2,5 7 4 WSW 1031,0 15
16.02.2019 02:00:00 -1,4 -2,1 4 2 SW 1031,4 15
16.02.2019 01:00:00 -0,6 -1,6 7 4 S 1031,4 20
16.02.2019 00:00:00 -0,2 -1,8 4 2 N 1031,6 20
15.02.2019 23:00:00 0,6 -1,0 7 4 SW 1031,6 30
15.02.2019 22:00:00 1,3 -0,7 4 2 SSW 1031,8 30
15.02.2019 21:00:00 2,2 -0,9 4 2 N 1031,9 30
15.02.2019 20:00:00 3,1 -0,3 4 2 N 1031,8 30
15.02.2019 19:00:00 5,7 0,4 4 2 NE 1031,5 30
15.02.2019 18:00:00 7,6 0,2 7 4 ENE 1031,1 30
15.02.2019 17:00:00 10,5 0,0 11 6 ENE 1030,7 40
15.02.2019 16:00:00 11,7 0,0 11 6 NE 1030,9 40
15.02.2019 15:00:00 11,5 -0,1 11 6 ENE 1031,5 40
15.02.2019 14:00:00 10,6 -0,2 11 6 ENE 1032,4 40
15.02.2019 13:00:00 8,4 -0,4 11 6 ENE 1033,4 40
15.02.2019 12:00:00 6,5 -1,5 11 6 ENE 1034,4 40
15.02.2019 11:00:00 4,8 -1,3 7 4 ENE 1035,1 40
15.02.2019 10:00:00 1,8 -2,0 4 2 NW 1035,9 40
15.02.2019 09:00:00 -0,5 -2,0 4 2 W 1036,5 40
15.02.2019 08:00:00 -2,5 -3,5 4 2 WNW 1036,6 40
15.02.2019 07:00:00 -2,5 -3,3 4 2 WSW 1036,4 40
15.02.2019 06:00:00 -1,3 -2,5 4 2 E 1036,1 20
15.02.2019 05:00:00 -1,5 -2,5 4 2 SE 1036,1 20
15.02.2019 04:00:00 -1,9 -2,9 4 2 W 1036,4 20
15.02.2019 03:00:00 -1,1 -2,3 7 4 N 1036,5 20
15.02.2019 02:00:00 -1,5 -2,5 4 2 N 1037,2 30
15.02.2019 01:00:00 -0,8 -2,2 4 2 WNW 1037,3 30
15.02.2019 00:00:00 -0,6 -2,0 4 2 N 1037,3 30
14.02.2019 23:00:00 0,7 -1,0 4 2 SSE 1036,9 30
14.02.2019 22:00:00 0,5 -1,3 7 4 SW 1037,2 30
14.02.2019 21:00:00 1,9 -0,8 0 0 N 1037,0 30
14.02.2019 20:00:00 4,2 0,0 7 4 NE 1036,7 30
14.02.2019 19:00:00 5,9 -0,1 7 4 ENE 1036,2 30
14.02.2019 18:00:00 7,8 -0,3 11 6 ENE 1035,4 30
14.02.2019 17:00:00 10,5 -1,5 7 4 ENE 1034,8 30
14.02.2019 16:00:00 11,9 -2,5 7 4 ENE 1034,8 30
14.02.2019 15:00:00 11,6 -2,0 7 4 ENE 1035,3 30
14.02.2019 14:00:00 9,5 -1,6 7 4 ENE 1036,2 30
14.02.2019 13:00:00 8,2 -1,4 4 2 ENE 1037,3 30
14.02.2019 12:00:00 4,8 -1,5 11 6 ENE 1038,4 30
14.02.2019 11:00:00 3,7 -2,0 4 2 NNE 1038,7 30
14.02.2019 10:00:00 -1,0 -2,5 4 2 WSW 1039,4 30
14.02.2019 09:00:00 -2,4 -3,2 4 2 N 1039,5 30
14.02.2019 08:00:00 -4,2 -4,9 7 4 SW 1039,5 20
14.02.2019 07:00:00 -3,9 -4,6 4 2 W 1039,0 20
14.02.2019 06:00:00 -3,5 -4,2 7 4 SW 1038,7 20
14.02.2019 05:00:00 -3,4 -4,2 7 4 SW 1038,3 20
14.02.2019 04:00:00 -3,1 -4,0 7 4 SW 1038,3 30
14.02.2019 03:00:00 -3,2 -4,1 7 4 SW 1038,6 30
14.02.2019 02:00:00 -2,5 -3,6 7 4 WSW 1038,8 30
14.02.2019 01:00:00 -2,4 -3,5 7 4 SW 1038,6 30
14.02.2019 00:00:00 -1,7 -3,2 4 2 SSW 1038,3 30
13.02.2019 23:00:00 -0,3 -2,6 4 2 SSW 1038,3 30
13.02.2019 22:00:00 -0,5 -3,2 4 2 WSW 1038,3 30
13.02.2019 21:00:00 1,0 -3,1 4 2 N 1038,0 30
13.02.2019 20:00:00 2,2 -2,7 4 2 N 1037,7 30
13.02.2019 19:00:00 3,6 -2,4 11 6 SE 1037,5 30
13.02.2019 18:00:00 5,0 -1,6 7 4 SE 1037,0 30
13.02.2019 17:00:00 7,5 -2,6 7 4 SE 1036,4 30
13.02.2019 16:00:00 8,7 -2,8 7 4 SW 1036,3 30
13.02.2019 15:00:00 8,6 -1,4 4 2 S 1036,3 30
13.02.2019 14:00:00 7,4 -2,2 7 4 NE 1036,8 30
13.02.2019 13:00:00 6,8 -0,9 4 2 WNW 1037,2 30
13.02.2019 12:00:00 4,4 -0,3 4 2 NE 1038,4 25
13.02.2019 11:00:00 1,9 -0,6 4 2 NNW 1038,7 25
13.02.2019 10:00:00 -1,3 -2,2 4 2 SW 1039,4 25
13.02.2019 09:00:00 -3,6 -4,2 7 4 SW 1039,5 20
13.02.2019 08:00:00 -3,8 -4,4 4 2 SSW 1039,2 8
13.02.2019 07:00:00 -4,0 -4,6 7 4 SW 1039,3 8
13.02.2019 06:00:00 -3,2 -3,8 4 2 N 1038,9 8
13.02.2019 05:00:00 -3,1 -3,6 4 2 S 1039,5 6
13.02.2019 04:00:00 -3,3 -3,8 4 2 N 1039,5 6
13.02.2019 03:00:00 -2,9 -3,4 4 2 N 1039,3 8
13.02.2019 02:00:00 -2,8 -3,3 7 4 SSW 1039,2 12
13.02.2019 01:00:00 -2,4 -3,1 4 2 N 1039,1 15
13.02.2019 00:00:00 -2,1 -2,9 4 2 SW 1039,1 15
12.02.2019 23:00:00 -1,3 -2,4 7 4 S 1038,8 20
12.02.2019 22:00:00 -1,0 -2,3 7 4 SSE 1038,8 20
12.02.2019 21:00:00 -0,4 -2,2 7 4 SSW 1038,4 25
12.02.2019 20:00:00 0,4 -2,2 7 4 S 1038,1 30
12.02.2019 19:00:00 1,9 -2,5 11 6 SSW 1037,6 35
12.02.2019 18:00:00 3,3 -3,4 11 6 SW 1036,8 35
12.02.2019 17:00:00 4,8 -3,9 11 6 WSW 1036,2 40

tt = Température de l'air
td = dewpoint
ff = Vitesse du vent
dd = Direction du vent
ppp = reduced air pressure
vv = visibility

stations d'obs. à proximité